Alicante, Spain

6:17 PM CEST on July 23, 2016 (GMT +0200)
Alicante

Weather History for LEAL - March, 2013

Change the Weather History Date:

Monday, March 18, 2013

  Actual Average Record
Temperature  
Mean Temperature 60 °F -  
Max Temperature 70 °F 66 °F 75 °F (1997)
Min Temperature 51 °F 48 °F 42 °F (2009)
Degree Days  
Heating Degree Days 4    
Growing Degree Days 10 (Base 50)    
Moisture  
Dew Point 46 °F    
Average Humidity 63    
Maximum Humidity 100    
Minimum Humidity 12    
Precipitation  
Precipitation 0.00 in - - ()
Sea Level Pressure  
Sea Level Pressure 29.66 in    
Wind  
Wind Speed 7 mph ()    
Max Wind Speed 20 mph    
Max Gust Speed -    
Visibility 6.9 miles    
Events      
Averages and records for this station are not official NWS values.
T = Trace of Precipitation, MM = Missing Value Source: Averaged Metar Reports

Daily Weather History Graph

Daily Weather History Graph

Search for Another Location

Airport or City:

Trip Planner

Search our weather history database for the weather conditions in past years. The results will help you decide how hot, cold, wet, or windy it might be!

Date:

Astronomy

Mar. 18, 2013 Rise Set
Actual Time 7:08 AM CET 7:12 PM CET
Civil Twilight 6:42 AM CET 7:38 PM CET
Nautical Twilight 6:11 AM CET 8:09 PM CET
Astronomical Twilight 5:40 AM CET 8:40 PM CET
Moon 11:01 AM CET (3/18) 12:54 AM CET (3/18)
Length of Visible Light 12h 56m
Length of Day
12h 03m
Waxing Crescent, 38% of the Moon is Illuminated
Mar 18
Waxing Crescent
Mar 19
First Quarter
Mar 27
Full
Apr 3
Last Quarter
Apr 10
New

Hourly Weather History & Observations

Time (CET) Temp. Dew Point Humidity Pressure Visibility Wind Dir Wind Speed Gust Speed Precip Events Conditions
12:00 AM 55.4 °F 55.4 °F 100% 29.50 in 6.2 mi SW 4.6 mph - N/A   Scattered Clouds
12:30 AM 55.4 °F 55.4 °F 100% 29.50 in 6.2 mi West 3.5 mph - N/A   Scattered Clouds
1:00 AM 55 °F 51 °F 83% 29.52 in 7 mi West 5.8 mph - -   Partly Cloudy
1:00 AM 55.4 °F 53.6 °F 94% 29.50 in 6.2 mi West 5.8 mph - N/A   Partly Cloudy
1:30 AM 53.6 °F 53.6 °F 100% 29.50 in 6.2 mi West 4.6 mph - N/A   Partly Cloudy
2:00 AM 53.6 °F 53.6 °F 100% 29.50 in 6.2 mi WSW 3.5 mph - N/A   Partly Cloudy
2:30 AM 55.4 °F 53.6 °F 94% 29.53 in 6.2 mi WSW 5.8 mph - N/A   Partly Cloudy
3:00 AM 60.8 °F 51.8 °F 72% 29.53 in 6.2 mi WSW 11.5 mph - N/A   Partly Cloudy
3:30 AM 60.8 °F 51.8 °F 72% 29.56 in 6.2 mi WSW 10.4 mph - N/A   Partly Cloudy
4:00 AM 59.0 °F 51.8 °F 77% 29.53 in - WNW 3.5 mph - N/A   Clear
4:30 AM 55.4 °F 50.0 °F 82% 29.56 in - West 5.8 mph - N/A   Clear
5:00 AM 55.4 °F 50.0 °F 82% 29.56 in - NW 4.6 mph - N/A   Clear
5:30 AM 57.2 °F 48.2 °F 72% 29.59 in - West 11.5 mph - N/A   Clear
6:00 AM 55.4 °F 48.2 °F 77% 29.59 in - Variable 2.3 mph - N/A   Clear
6:30 AM 59.0 °F 42.8 °F 55% 29.59 in - WNW 19.6 mph - N/A   Clear
7:00 AM 57 °F 39 °F 40% 29.64 in 22 mi WNW 17.3 mph - -   Scattered Clouds
7:00 AM 57.2 °F 42.8 °F 59% 29.62 in 6.2 mi WNW 16.1 mph - N/A   Partly Cloudy
7:30 AM 57.2 °F 42.8 °F 59% 29.65 in 6.2 mi WNW 18.4 mph - N/A   Partly Cloudy
8:00 AM 57.2 °F 42.8 °F 59% 29.68 in - WNW 10.4 mph - N/A   Clear
8:30 AM 57.2 °F 42.8 °F 59% 29.68 in - WNW 10.4 mph - N/A   Clear
9:00 AM 59.0 °F 41.0 °F 51% 29.71 in 6.2 mi WNW 12.7 mph - N/A   Partly Cloudy
9:30 AM 60.8 °F 41.0 °F 48% 29.71 in 6.2 mi WNW 12.7 mph - N/A   Partly Cloudy
10:00 AM 60.8 °F 41.0 °F 48% 29.71 in - West 12.7 mph - N/A   Clear
10:30 AM 62.6 °F 39.2 °F 42% 29.74 in - WNW 12.7 mph - N/A   Clear
11:00 AM 62.6 °F 37.4 °F 39% 29.74 in - WNW 12.7 mph - N/A   Clear
11:30 AM 66.2 °F 32.0 °F 28% 29.74 in - West 13.8 mph - N/A   Clear
12:00 PM 66.2 °F 30.2 °F 26% 29.71 in - West 13.8 mph - N/A   Clear
12:30 PM 68.0 °F 30.2 °F 24% 29.74 in - WNW 13.8 mph - N/A   Clear
1:00 PM 69 °F 29 °F 12% 29.73 in 28 mi WSW 11.5 mph - -  
1:00 PM 69.8 °F 30.2 °F 23% 29.71 in - WSW 11.5 mph - N/A   Clear
1:30 PM 69.8 °F 33.8 °F 27% 29.71 in - SW 11.5 mph - N/A   Clear
2:00 PM 68.0 °F 39.2 °F 35% 29.71 in - South 13.8 mph - N/A   Clear
2:30 PM 68.0 °F 39.2 °F 35% 29.71 in - South 13.8 mph - N/A   Clear
3:00 PM 66.2 °F 39.2 °F 37% 29.71 in - SSE 12.7 mph - N/A   Clear
3:30 PM 66.2 °F 39.2 °F 37% 29.71 in - South 12.7 mph - N/A   Clear
4:00 PM 66.2 °F 42.8 °F 43% 29.71 in - South 12.7 mph - N/A   Clear
4:30 PM 66.2 °F 48.2 °F 52% 29.71 in - South 10.4 mph - N/A   Clear
5:00 PM 66.2 °F 48.2 °F 52% 29.68 in - South 5.8 mph - N/A   Clear
5:30 PM 66.2 °F 48.2 °F 52% 29.71 in - SSW 5.8 mph - N/A   Clear
6:00 PM 66.2 °F 50.0 °F 56% 29.71 in - South 5.8 mph - N/A   Clear
6:30 PM 62.6 °F 51.8 °F 68% 29.74 in - South 3.5 mph - N/A   Clear
7:00 PM 62 °F 51 °F 58% 29.74 in 16 mi SSE 2.3 mph - -   Scattered Clouds
7:00 PM 60.8 °F 53.6 °F 77% 29.74 in 6.2 mi Variable 2.3 mph - N/A   Partly Cloudy
7:30 PM 59.0 °F 55.4 °F 88% 29.74 in - Calm Calm - N/A   Clear
8:00 PM 57.2 °F 53.6 °F 88% 29.74 in - Variable 1.2 mph - N/A   Clear
8:30 PM 57.2 °F 53.6 °F 88% 29.74 in - Calm Calm - N/A   Clear
9:00 PM 55.4 °F 53.6 °F 94% 29.74 in - Variable 1.2 mph - N/A   Clear
9:30 PM 55.4 °F 51.8 °F 88% 29.74 in - NNW 3.5 mph - N/A   Clear
10:00 PM 53.6 °F 50.0 °F 88% 29.77 in - Calm Calm - N/A   Clear
10:30 PM 51.8 °F 50.0 °F 94% 29.77 in - Variable 2.3 mph - N/A   Clear
11:00 PM 53.6 °F 50.0 °F 88% 29.74 in - Variable 2.3 mph - N/A   Clear
11:30 PM 53.6 °F 46.4 °F 77% 29.74 in - Calm Calm - N/A   Clear